Ketchikan, AK

9:49 PM AKDT on September 20, 2018 (GMT -0800)
Ketchikan International

Weather History for PAKT - October, 2017

Change the Weather History Date:

Sunday, October 1, 2017

  Actual Average Record
Temperature  
Mean Temperature 52 °F -  
Max Temperature 59 °F 56 °F 63 °F (1987)
Min Temperature 46 °F 44 °F 30 °F (2000)
Degree Days  
Heating Degree Days 12    
Growing Degree Days 2 (Base 50)    
Moisture  
Dew Point 45 °F    
Average Humidity 80    
Maximum Humidity 93    
Minimum Humidity 63    
Precipitation  
Precipitation 0.00 in - - ()
Sea Level Pressure  
Sea Level Pressure 30.35 in    
Wind  
Wind Speed 8 mph (NW)    
Max Wind Speed 16 mph    
Max Gust Speed 17 mph    
Visibility 10 miles    
Events      
Averages and records for this station are not official NWS values.
T = Trace of Precipitation, MM = Missing Value Source: NWS Daily Summary

Daily Weather History Graph

Daily Weather History Graph

Search for Another Location

Airport or City:

Astronomy

Oct. 01, 2017 Rise Set
Actual Time 6:50 AM AKDT 6:21 PM AKDT
Civil Twilight 6:13 AM AKDT 6:57 PM AKDT
Nautical Twilight 5:31 AM AKDT 7:40 PM AKDT
Astronomical Twilight 4:47 AM AKDT 8:23 PM AKDT
Moon 5:09 PM AKDT (10/1) 1:37 AM AKDT (10/1)
Length of Visible Light 12h 43m
Length of Day
11h 30m
Waxing Gibbous, 83% of the Moon is Illuminated
Oct 1
Waxing Gibbous
Oct 5
Full
Oct 12
Last Quarter
Oct 19
New
Oct 27
First Quarter

Hourly Weather History & Observations

Time (AKDT) Temp. Dew Point Humidity Pressure Visibility Wind Dir Wind Speed Gust Speed Precip Events Conditions
12:53 AM 50.0 °F 46.9 °F 89% 30.25 in 10.0 mi NW 6.9 mph - N/A   Partly Cloudy
1:53 AM 48.9 °F 46.9 °F 93% 30.26 in 10.0 mi NNW 6.9 mph - N/A   Clear
2:53 AM 50.0 °F 46.0 °F 86% 30.28 in 10.0 mi NNW 8.1 mph - N/A   Mostly Cloudy
3:53 AM 48.9 °F 46.9 °F 93% 30.29 in 10.0 mi NW 6.9 mph - N/A   Partly Cloudy
4:53 AM 50.0 °F 45.0 °F 83% 30.30 in 10.0 mi NW 8.1 mph - N/A   Clear
5:53 AM 48.9 °F 45.0 °F 86% 30.31 in 10.0 mi NW 9.2 mph - N/A   Clear
6:02 AM 48.9 °F 45.0 °F 86% 30.31 in 10.0 mi NW 8.1 mph - N/A   Clear
6:53 AM 48.2 °F 44.6 °F 87% 30.32 in 10.0 mi WNW 8.1 mph - N/A   Clear
7:53 AM 50.0 °F 44.6 °F 82% 30.33 in 10.0 mi NW 9.2 mph - N/A   Partly Cloudy
8:53 AM 51.8 °F 44.6 °F 76% 30.34 in 10.0 mi NW 9.2 mph - N/A   Partly Cloudy
9:53 AM 53.6 °F 44.6 °F 72% 30.35 in 10.0 mi WNW 10.4 mph - N/A   Partly Cloudy
10:53 AM 55.4 °F 42.8 °F 63% 30.35 in 10.0 mi NW 16.1 mph - N/A   Partly Cloudy
11:53 AM 55.4 °F 44.6 °F 67% 30.36 in 10.0 mi NW 11.5 mph 17.3 mph N/A   Clear
12:53 PM 57.2 °F 44.6 °F 63% 30.38 in 10.0 mi NW 8.1 mph - N/A   Clear
1:53 PM 57.2 °F 44.6 °F 63% 30.36 in 10.0 mi NW 12.7 mph - N/A   Clear
2:53 PM 57.2 °F 44.6 °F 63% 30.36 in 10.0 mi NW 11.5 mph - N/A   Clear
3:53 PM 57.2 °F 44.6 °F 63% 30.37 in 10.0 mi NW 10.4 mph - N/A   Clear
4:53 PM 55.4 °F 44.6 °F 67% 30.38 in 10.0 mi NNW 10.4 mph - N/A   Clear
5:53 PM 53.6 °F 46.4 °F 77% 30.38 in 10.0 mi NW 5.8 mph - N/A   Clear
6:53 PM 50.0 °F 46.4 °F 87% 30.40 in 10.0 mi Calm Calm - N/A   Clear
7:53 PM 48.2 °F 44.6 °F 87% 30.40 in 10.0 mi WNW 6.9 mph - N/A   Clear
8:53 PM 48.2 °F 46.4 °F 93% 30.40 in 10.0 mi NW 9.2 mph - N/A   Clear
9:53 PM 48.9 °F 46.0 °F 90% 30.40 in 10.0 mi NW 5.8 mph - N/A   Clear
10:53 PM 48.0 °F 45.0 °F 89% 30.40 in 10.0 mi NW 8.1 mph - N/A   Clear
11:53 PM 46.9 °F 45.0 °F 93% 30.41 in 10.0 mi NW 6.9 mph - N/A   Clear